Showing default

AEROCUBE 8D, 41852

Orbit data source: Space-Track

AEROCUBE 8D, 41852 is a payload satellite owned by AERO (US) in SSO that was launched on Fri, 11 Nov 2016 UTC via an ATLAS V 401 launch vehicle from the Air Force Western Test Range (AFWTR). Payload-class satellites include a variety of spacecraft equipped with specific instruments for various scientific and technological missions. These include communications satellites like Starlink; space stations such as the ISS; scientific satellites like the Hubble; Earth observation satellites from companies like Planet Labs, Umbra, and HawkEye 360; GPS; miniature CubeSats for education and research; and military/defense satellites.

Loading next visibility...
Identifier
41852, 2016-067E
Orbit
SSO
Country
Flag of USUS
Related business
Manufacturer
AERO
Mission
Operational Defense Technology
Bus & Motor
CUBESAT 1.5U, Unknown motor
Mass
2 kg wet, 2 kg dry
Launch date (UTC)
2016-11-11 (9 years ago)
Launch vehicle
ATLAS V 401
Launch site
Air Force Western Test Range (AFWTR)
Object type
Payload
Rocket body
Debris
Shape & HBR
Box, 0.1 m
Radar Cross Section
0.025 m², Small (<0.1 m²)

Expand to show TLE details & history
Last TLE update: 13 hours ago

TLE from 13 hours ago
0 AEROCUBE 8D
1 41852U 16067E   26123.57566264  .00008515  00000-0  35709-3 0  9991
2 41852  98.0737 350.3622 0002044 303.4469  56.6570 15.23778553519275
Epoch: 2026-05-03T13:48Z
TLE epoch observation values (Epoch: 2026-05-03T13:48:57.252Z)
Latitude
-0.00006°
Longitude
-78.35358°
Altitude
496.759 km
Speed
7.617 km/s
True Right ascension
23h 21m 26s
True Declination
0° 00' 00"
Sunlit
Object was in daylight at epoch
Visualization orbit readout
Latitude
Unknown
Longitude
Unknown
Altitude
Unknown
Speed
Unknown
Apparent Right ascension
Unknown
Apparent Declination
Unknown
Sunlit
N/A
Visualization observer readout
Local Sidereal Time
10:25:56
Azimuth
Unknown
Elevation
Unknown
Doppler factor
Unknown
Orbital elements
Apogee altitude
492.85 km
Perigee altitude
490.042 km
Semi-major axis
6,869.583 km
Eccentricity
0.0002
Inclination
98.0737°
RAAN
350.3622°
Arg. of periapsis
303.4469°
True anomaly
56.67657°
Mean anomaly
56.657°
Eccentric anomaly
56.66678°
Mean motion
3.81195 °/min
Orbital period
94.44 mins
BSTAR
0.00035709
Loading maneuver chart data...
Computing Atmospheric mass density...
Loading historical data...
Loading historical data...
Loading historical data...
Loading historical data...
Loading historical data...
Loading historical data...
Loading historical data...

Documentation

Showing up to 5 results
|